Time,B instrument,Bx,By,Bz,sigma B,Ion instrument,Status,Tp_par,Tp_perp,carrot,r_sun,clat,clong,earth_he_angle,n_p,vp_x,vp_y,vp_z,vth_p_par,vth_p_perp
1980-05-29 00:00:47,-1,nan,nan,nan,nan,2,4,nan,nan,1695,0.30957747,0.33837271,150.70711,10.777423,nan,nan,nan,nan,nan,nan
1980-05-29 00:01:28,-1,nan,nan,nan,nan,2,4,nan,nan,1695,0.30957758,0.3389883,150.70354,10.781657,nan,nan,nan,nan,nan,nan
1980-05-29 00:02:08,-1,nan,nan,nan,nan,2,4,nan,nan,1695,0.3095777,0.33960396,150.70386,10.785892,nan,nan,nan,nan,nan,nan
1980-05-29 00:02:49,-1,nan,nan,nan,nan,2,4,nan,nan,1695,0.3095777,0.33960438,150.69604,10.785894,nan,nan,nan,nan,nan,nan
1980-05-29 00:03:29,-1,nan,nan,nan,nan,2,4,nan,nan,1695,0.30957782,0.34021997,150.69247,10.790129,nan,nan,nan,nan,nan,nan
1980-05-29 00:04:10,-1,nan,nan,nan,nan,2,4,nan,nan,1695,0.30957794,0.34083563,150.69279,10.794363,nan,nan,nan,nan,nan,nan
1980-05-29 00:04:50,-1,nan,nan,nan,nan,2,4,nan,nan,1695,0.30957794,0.34083605,150.685,10.794366,nan,nan,nan,nan,nan,nan
1980-05-29 00:05:31,-1,nan,nan,nan,nan,2,4,nan,nan,1695,0.30957806,0.34145164,150.68532,10.7986,nan,nan,nan,nan,nan,nan
1980-05-29 00:06:11,-1,nan,nan,nan,nan,2,4,nan,nan,1695,0.30957818,0.3420673,150.68175,10.802835,nan,nan,nan,nan,nan,nan
1980-05-29 00:06:52,-1,nan,nan,nan,nan,2,4,nan,nan,1695,0.30957818,0.34206772,150.67784,10.802837,nan,nan,nan,nan,nan,nan
1980-05-29 00:07:32,-1,nan,nan,nan,nan,2,4,nan,nan,1695,0.3095783,0.34268332,150.67426,10.807072,nan,nan,nan,nan,nan,nan
1980-05-29 00:08:53,-1,nan,nan,nan,nan,2,4,nan,nan,1695,0.30957842,0.34329939,150.66678,10.811309,nan,nan,nan,nan,nan,nan
1980-05-29 00:09:34,-1,nan,nan,nan,nan,2,4,nan,nan,1695,0.30957854,0.34391499,150.66319,10.815543,nan,nan,nan,nan,nan,nan
1980-05-29 00:10:14,-1,nan,nan,nan,nan,2,4,nan,nan,1695,0.30957866,0.34453064,150.66353,10.819777,nan,nan,nan,nan,nan,nan
1980-05-29 00:10:55,-1,nan,nan,nan,nan,2,4,nan,nan,1695,0.30957866,0.34453106,150.65572,10.81978,nan,nan,nan,nan,nan,nan
1980-05-29 00:11:35,-1,nan,nan,nan,nan,2,4,nan,nan,1695,0.30957878,0.34514666,150.65215,10.824015,nan,nan,nan,nan,nan,nan
1980-05-29 00:12:16,-1,nan,nan,nan,nan,2,4,nan,nan,1695,0.30957896,0.34576231,150.65247,10.828249,nan,nan,nan,nan,nan,nan
1980-05-29 00:12:56,-1,nan,nan,nan,nan,2,4,nan,nan,1695,0.30957896,0.34576273,150.64465,10.828252,nan,nan,nan,nan,nan,nan
1980-05-29 00:13:37,-1,nan,nan,nan,nan,2,4,nan,nan,1695,0.30957907,0.34637833,150.64499,10.832487,nan,nan,nan,nan,nan,nan
1980-05-29 00:14:17,-1,nan,nan,nan,nan,2,4,nan,nan,1695,0.30957919,0.34699398,150.6414,10.836721,nan,nan,nan,nan,nan,nan
1980-05-29 00:14:58,-1,nan,nan,nan,nan,2,4,nan,nan,1695,0.30957919,0.3469944,150.63361,10.836724,nan,nan,nan,nan,nan,nan
1980-05-29 00:15:38,-1,nan,nan,nan,nan,2,4,nan,nan,1695,0.30957931,0.34761,150.63393,10.840959,nan,nan,nan,nan,nan,nan
1980-05-29 00:16:59,-1,nan,nan,nan,nan,2,4,nan,nan,1695,0.30957943,0.34822607,150.62645,10.845196,nan,nan,nan,nan,nan,nan
1980-05-29 00:17:40,-1,nan,nan,nan,nan,2,4,nan,nan,1695,0.30957955,0.34884167,150.62286,10.84943,nan,nan,nan,nan,nan,nan
1980-05-29 00:18:20,-1,nan,nan,nan,nan,2,4,nan,nan,1695,0.30957967,0.34945732,150.6232,10.853664,nan,nan,nan,nan,nan,nan
1980-05-29 00:19:01,-1,nan,nan,nan,nan,2,4,nan,nan,1695,0.30957979,0.35007292,150.61961,10.857899,nan,nan,nan,nan,nan,nan
1980-05-29 00:19:41,-1,nan,nan,nan,nan,2,4,nan,nan,1695,0.30957979,0.35007334,150.6118,10.857902,nan,nan,nan,nan,nan,nan
1980-05-29 00:20:22,-1,nan,nan,nan,nan,2,4,nan,nan,1695,0.30957991,0.35068899,150.61214,10.862136,nan,nan,nan,nan,nan,nan
1980-05-29 00:21:02,-1,nan,nan,nan,nan,2,4,nan,nan,1695,0.30958003,0.35130459,150.60855,10.86637,nan,nan,nan,nan,nan,nan
1980-05-29 00:21:43,-1,nan,nan,nan,nan,2,4,nan,nan,1695,0.30958003,0.35130501,150.60466,10.866373,nan,nan,nan,nan,nan,nan
1980-05-29 00:22:23,-1,nan,nan,nan,nan,2,4,nan,nan,1695,0.30958015,0.35192066,150.60107,10.870607,nan,nan,nan,nan,nan,nan
1980-05-29 00:23:44,-1,nan,nan,nan,nan,2,4,nan,nan,1695,0.30958027,0.35253668,150.5936,10.874845,nan,nan,nan,nan,nan,nan
1980-05-29 00:24:25,-1,nan,nan,nan,nan,2,4,nan,nan,1695,0.30958045,0.35315233,150.59001,10.879079,nan,nan,nan,nan,nan,nan
1980-05-29 00:25:05,-1,nan,nan,nan,nan,2,4,nan,nan,1695,0.30958056,0.35376793,150.59035,10.883313,nan,nan,nan,nan,nan,nan
1980-05-29 00:25:46,-1,nan,nan,nan,nan,2,4,nan,nan,1695,0.30958056,0.35376835,150.58253,10.883316,nan,nan,nan,nan,nan,nan
1980-05-29 00:26:26,-1,nan,nan,nan,nan,2,4,nan,nan,1695,0.30958068,0.35438395,150.57896,10.88755,nan,nan,nan,nan,nan,nan
1980-05-29 00:27:07,-1,nan,nan,nan,nan,2,4,nan,nan,1695,0.3095808,0.3549996,150.57928,10.891785,nan,nan,nan,nan,nan,nan
1980-05-29 00:27:47,-1,nan,nan,nan,nan,2,4,nan,nan,1695,0.3095808,0.35500002,150.57147,10.891788,nan,nan,nan,nan,nan,nan
1980-05-29 00:28:28,-1,nan,nan,nan,nan,2,4,nan,nan,1695,0.30958092,0.35561568,150.57181,10.896022,nan,nan,nan,nan,nan,nan
1980-05-29 00:29:08,-1,nan,nan,nan,nan,2,4,nan,nan,1695,0.30958104,0.35623127,150.56822,10.900256,nan,nan,nan,nan,nan,nan
1980-05-29 00:29:49,-1,nan,nan,nan,nan,2,4,nan,nan,1695,0.30958104,0.35623169,150.56432,10.900259,nan,nan,nan,nan,nan,nan
1980-05-29 00:30:29,-1,nan,nan,nan,nan,2,4,nan,nan,1695,0.30958116,0.35684729,150.56075,10.904493,nan,nan,nan,nan,nan,nan
1980-05-29 00:31:10,-1,nan,nan,nan,nan,2,4,nan,nan,1695,0.30958128,0.35746294,150.55716,10.908728,nan,nan,nan,nan,nan,nan
1980-05-29 00:31:50,-1,nan,nan,nan,nan,2,4,nan,nan,1695,0.30958128,0.35746336,150.55327,10.908731,nan,nan,nan,nan,nan,nan
1980-05-29 00:32:31,-1,nan,nan,nan,nan,2,4,nan,nan,1695,0.3095814,0.35807902,150.54968,10.912965,nan,nan,nan,nan,nan,nan
1980-05-29 00:33:11,-1,nan,nan,nan,nan,2,4,nan,nan,1695,0.30958152,0.35869461,150.55002,10.917199,nan,nan,nan,nan,nan,nan
1980-05-29 00:33:52,-1,nan,nan,nan,nan,2,4,nan,nan,1695,0.30958152,0.35869503,150.54221,10.917202,nan,nan,nan,nan,nan,nan
1980-05-29 00:34:32,-1,nan,nan,nan,nan,2,4,nan,nan,1695,0.30958164,0.35931063,150.53862,10.921436,nan,nan,nan,nan,nan,nan
1980-05-29 00:35:13,-1,nan,nan,nan,nan,2,4,nan,nan,1695,0.30958176,0.35992628,150.53896,10.925671,nan,nan,nan,nan,nan,nan
1980-05-29 00:35:53,-1,nan,nan,nan,nan,2,4,nan,nan,1695,0.30958176,0.3599267,150.53114,10.925673,nan,nan,nan,nan,nan,nan
1980-05-29 00:36:34,-1,nan,nan,nan,nan,2,4,nan,nan,1695,0.30958194,0.3605423,150.53146,10.929908,nan,nan,nan,nan,nan,nan
1980-05-29 00:37:14,-1,nan,nan,nan,nan,2,4,nan,nan,1695,0.30958205,0.36115795,150.52789,10.934142,nan,nan,nan,nan,nan,nan
1980-05-29 00:37:55,-1,nan,nan,nan,nan,2,4,nan,nan,1695,0.30958205,0.36115837,150.52008,10.934145,nan,nan,nan,nan,nan,nan
1980-05-29 00:38:35,-1,nan,nan,nan,nan,2,4,nan,nan,1695,0.30958217,0.36177397,150.52042,10.938379,nan,nan,nan,nan,nan,nan
1980-05-29 00:39:16,-1,nan,nan,nan,nan,2,4,nan,nan,1695,0.30958229,0.36238962,150.51683,10.942615,nan,nan,nan,nan,nan,nan
1980-05-29 00:39:56,-1,nan,nan,nan,nan,1,4,nan,nan,1695,0.30958229,0.36239004,150.51292,10.942616,nan,nan,nan,nan,nan,nan
1980-05-29 00:40:37,-1,nan,nan,nan,nan,1,4,nan,nan,1695,0.30958241,0.36300564,150.50935,10.946852,nan,nan,nan,nan,nan,nan
1980-05-29 00:41:17,-1,nan,nan,nan,nan,1,4,nan,nan,1695,0.30958253,0.36362129,150.50967,10.951086,nan,nan,nan,nan,nan,nan
1980-05-29 00:41:58,1,43.5625,-2.15,-0.625,0.998358,1,1,43700.6,48833.9,1695,0.30958253,0.36362171,150.50188,10.951089,55.2172,220.474,16.61,11.7923,26.8597,28.3935
1980-05-29 00:42:38,-1,nan,nan,nan,nan,1,4,nan,nan,1695,0.30958265,0.36423731,150.49829,10.955323,nan,nan,nan,nan,nan,nan
1980-05-29 00:43:19,1,43.425,-3.2,-6.2,0.875714,1,1,49532.6,49726.4,1695,0.30958277,0.36485296,150.49863,10.959558,55.4949,222.305,17.773,22.7826,28.5959,28.6518
1980-05-29 00:43:59,-1,nan,nan,nan,nan,1,4,nan,nan,1695,0.30958277,0.36485338,150.49081,10.95956,nan,nan,nan,nan,nan,nan
1980-05-29 00:44:40,1,43.2375,0.5625,0.275,0.893903,1,1,51255.6,51871.5,1695,0.30958289,0.36546898,150.49113,10.963795,58.2149,219.613,10.2955,8.42438,29.089,29.2632
1980-05-29 00:45:20,-1,nan,nan,nan,nan,1,4,nan,nan,1695,0.30958301,0.36608464,150.48756,10.968029,nan,nan,nan,nan,nan,nan
1980-05-29 00:46:01,1,42.6375,-4.575,1.0375,1.51296,1,1,47526.1,50348.1,1695,0.30958313,0.36670023,150.48398,10.972263,57.4729,221.456,21.9968,-2.4825,28.0107,28.8303
1980-05-29 00:46:41,-1,nan,nan,nan,nan,1,4,nan,nan,1695,0.30958313,0.36670065,150.48007,10.972266,nan,nan,nan,nan,nan,nan
1980-05-29 00:47:22,1,42.45,-7.575,1.05,0.967923,1,1,47260.2,51139.9,1695,0.30958325,0.36731631,150.4765,10.976501,59.021,222.233,28.3115,6.18499,27.9322,29.0561
1980-05-29 00:48:02,-1,nan,nan,nan,nan,1,4,nan,nan,1695,0.30958343,0.3679319,150.47682,10.980735,nan,nan,nan,nan,nan,nan
1980-05-29 00:48:43,1,42.45,-8.3,0.9875,1.42516,1,1,46840.2,49109.5,1695,0.30958343,0.36793232,150.46902,10.980738,57.3343,222.426,31.9142,2.88349,27.8078,28.4735
1980-05-29 00:49:23,-1,nan,nan,nan,nan,1,4,nan,nan,1695,0.30958354,0.36854798,150.46544,10.984972,nan,nan,nan,nan,nan,nan
1980-05-29 00:50:04,1,41.825,-10.1375,4.55,0.804188,1,1,44762.1,50468.8,1695,0.30958366,0.36916357,150.46577,10.989206,55.2734,224.531,33.4423,-4.47905,27.184,28.8648
1980-05-29 00:50:44,-1,nan,nan,nan,nan,1,4,nan,nan,1695,0.30958366,0.36916399,150.45796,10.989209,nan,nan,nan,nan,nan,nan
1980-05-29 00:51:25,-1,nan,nan,nan,nan,1,4,nan,nan,1695,0.30958378,0.36977965,150.45828,10.993443,nan,nan,nan,nan,nan,nan
1980-05-29 00:52:05,-1,nan,nan,nan,nan,2,4,nan,nan,1695,0.3095839,0.37039524,150.45471,10.997678,nan,nan,nan,nan,nan,nan
1980-05-29 00:52:46,-1,nan,nan,nan,nan,2,4,nan,nan,1695,0.3095839,0.37039566,150.45081,10.997681,nan,nan,nan,nan,nan,nan
1980-05-29 00:53:26,-1,nan,nan,nan,nan,2,4,nan,nan,1695,0.30958402,0.37101132,150.44724,11.001915,nan,nan,nan,nan,nan,nan
1980-05-29 00:54:07,-1,nan,nan,nan,nan,2,4,nan,nan,1695,0.30958414,0.37162691,150.44365,11.006149,nan,nan,nan,nan,nan,nan
1980-05-29 00:54:47,-1,nan,nan,nan,nan,2,4,nan,nan,1695,0.30958414,0.37162733,150.43974,11.006152,nan,nan,nan,nan,nan,nan
1980-05-29 00:55:28,-1,nan,nan,nan,nan,2,4,nan,nan,1695,0.30958426,0.37224299,150.43617,11.010386,nan,nan,nan,nan,nan,nan
1980-05-29 00:56:08,-1,nan,nan,nan,nan,2,4,nan,nan,1695,0.30958438,0.37285858,150.43649,11.014621,nan,nan,nan,nan,nan,nan
1980-05-29 00:56:49,-1,nan,nan,nan,nan,2,4,nan,nan,1695,0.30958438,0.372859,150.42868,11.014624,nan,nan,nan,nan,nan,nan
1980-05-29 00:57:29,-1,nan,nan,nan,nan,2,4,nan,nan,1695,0.3095845,0.37347466,150.42511,11.018858,nan,nan,nan,nan,nan,nan
1980-05-29 00:58:10,-1,nan,nan,nan,nan,2,4,nan,nan,1695,0.30958462,0.37409025,150.42543,11.023092,nan,nan,nan,nan,nan,nan
1980-05-29 00:58:50,-1,nan,nan,nan,nan,2,4,nan,nan,1695,0.30958462,0.37409067,150.41763,11.023095,nan,nan,nan,nan,nan,nan
1980-05-29 00:59:31,-1,nan,nan,nan,nan,2,4,nan,nan,1695,0.30958474,0.37470633,150.41795,11.027329,nan,nan,nan,nan,nan,nan
1980-05-29 01:00:11,-1,nan,nan,nan,nan,2,4,nan,nan,1695,0.30958492,0.37532192,150.41438,11.031564,nan,nan,nan,nan,nan,nan
1980-05-29 01:00:52,-1,nan,nan,nan,nan,2,4,nan,nan,1695,0.30958492,0.37532234,150.40657,11.031567,nan,nan,nan,nan,nan,nan
1980-05-29 01:01:32,-1,nan,nan,nan,nan,2,4,nan,nan,1695,0.30958503,0.37593782,150.40689,11.035801,nan,nan,nan,nan,nan,nan
1980-05-29 01:02:13,-1,nan,nan,nan,nan,2,4,nan,nan,1695,0.30958521,0.37655324,150.40332,11.040035,nan,nan,nan,nan,nan,nan
1980-05-29 01:02:53,-1,nan,nan,nan,nan,2,4,nan,nan,1695,0.30958521,0.37655365,150.39941,11.040038,nan,nan,nan,nan,nan,nan
1980-05-29 01:03:34,-1,nan,nan,nan,nan,2,4,nan,nan,1695,0.30958539,0.37716907,150.39583,11.044272,nan,nan,nan,nan,nan,nan
1980-05-29 01:04:14,-1,nan,nan,nan,nan,2,4,nan,nan,1695,0.30958557,0.37778449,150.39616,11.048506,nan,nan,nan,nan,nan,nan
1980-05-29 01:04:55,-1,nan,nan,nan,nan,2,4,nan,nan,1695,0.30958557,0.37778491,150.38835,11.048509,nan,nan,nan,nan,nan,nan
1980-05-29 01:05:35,-1,nan,nan,nan,nan,2,4,nan,nan,1695,0.30958575,0.37840033,150.38478,11.052743,nan,nan,nan,nan,nan,nan
1980-05-29 01:06:16,-1,nan,nan,nan,nan,2,4,nan,nan,1695,0.30958593,0.37901574,150.3851,11.056977,nan,nan,nan,nan,nan,nan
1980-05-29 01:06:56,-1,nan,nan,nan,nan,2,4,nan,nan,1695,0.30958593,0.37901616,150.37729,11.05698,nan,nan,nan,nan,nan,nan
1980-05-29 01:07:37,-1,nan,nan,nan,nan,2,4,nan,nan,1695,0.30958611,0.37963158,150.37762,11.061214,nan,nan,nan,nan,nan,nan
1980-05-29 01:08:17,-1,nan,nan,nan,nan,2,4,nan,nan,1695,0.30958623,0.38024706,150.37404,11.065448,nan,nan,nan,nan,nan,nan
1980-05-29 01:08:58,-1,nan,nan,nan,nan,2,4,nan,nan,1695,0.30958623,0.38024747,150.36623,11.065451,nan,nan,nan,nan,nan,nan
1980-05-29 01:09:38,-1,nan,nan,nan,nan,2,4,nan,nan,1695,0.30958641,0.38086289,150.36656,11.069685,nan,nan,nan,nan,nan,nan
1980-05-29 01:10:19,-1,nan,nan,nan,nan,2,4,nan,nan,1695,0.30958658,0.38147831,150.36298,11.073919,nan,nan,nan,nan,nan,nan
1980-05-29 01:10:59,-1,nan,nan,nan,nan,2,4,nan,nan,1695,0.30958658,0.38147873,150.35909,11.073922,nan,nan,nan,nan,nan,nan
1980-05-29 01:11:40,-1,nan,nan,nan,nan,2,4,nan,nan,1695,0.30958676,0.38209414,150.3555,11.078156,nan,nan,nan,nan,nan,nan
1980-05-29 01:12:20,-1,nan,nan,nan,nan,2,4,nan,nan,1695,0.30958694,0.38270956,150.35583,11.08239,nan,nan,nan,nan,nan,nan
1980-05-29 01:13:01,-1,nan,nan,nan,nan,2,4,nan,nan,1695,0.30958712,0.38332498,150.35225,11.086624,nan,nan,nan,nan,nan,nan
1980-05-29 01:13:41,-1,nan,nan,nan,nan,2,4,nan,nan,1695,0.30958712,0.3833254,150.34444,11.086627,nan,nan,nan,nan,nan,nan
1980-05-29 01:14:22,-1,nan,nan,nan,nan,2,4,nan,nan,1695,0.3095873,0.38394088,150.34477,11.090861,nan,nan,nan,nan,nan,nan
1980-05-29 01:15:02,-1,nan,nan,nan,nan,1,4,nan,nan,1695,0.30958748,0.38455629,150.34119,11.095096,nan,nan,nan,nan,nan,nan
1980-05-29 01:15:43,-1,nan,nan,nan,nan,1,4,nan,nan,1695,0.30958748,0.38455671,150.33728,11.095098,nan,nan,nan,nan,nan,nan
1980-05-29 01:16:23,1,39.9429,19.4857,2.1,0.930876,1,1,48048.8,46744.1,1695,0.3095876,0.38517213,150.33371,11.099332,55.2835,224.851,-39.5918,14.884,28.1643,27.7793
1980-05-29 01:17:04,1,39.15,21.0125,3.725,2.46028,1,1,48640.5,45687.2,1695,0.30958778,0.38578755,150.33012,11.103566,56.9087,226.382,-43.9671,6.26618,28.3372,27.4635
1980-05-29 01:17:44,1,36.8875,24.475,5.875,1.1202,1,1,46836.6,51407.6,1695,0.30958778,0.38578796,150.32623,11.103569,59.7309,228.945,-52.0718,1.61704,27.8068,29.1321
1980-05-29 01:18:25,1,38.8556,20.5889,3.97778,4.83261,1,1,44459.0,52228.4,1695,0.30958796,0.38640338,150.32265,11.107803,65.9773,228.754,-48.1692,1.76273,27.0918,29.3637
1980-05-29 01:19:05,1,40.9,16.8778,1.43333,1.49055,1,1,41851.0,50144.8,1695,0.30958813,0.3870188,150.32298,11.112038,61.7461,219.86,-31.3572,14.1786,26.2852,28.7721
1980-05-29 01:19:46,1,42.3125,13.125,-1.6625,1.32959,1,1,45566.6,43347.0,1695,0.30958813,0.38701922,150.31517,11.112041,53.6045,219.24,-22.6128,21.6187,27.4272,26.7509
1980-05-29 01:20:26,1,40.9889,16.1333,3.27778,2.04245,1,1,46855.3,50197.3,1695,0.30958831,0.38763463,150.31158,11.116274,59.6414,219.397,-29.7987,11.4188,27.8123,28.7871
1980-05-29 01:21:07,1,37.95,21.7625,5.9375,4.25672,1,1,46144.8,45435.8,1695,0.30958849,0.38825011,150.31192,11.120508,57.8985,231.344,-51.5843,7.74952,27.6007,27.3878
1980-05-29 01:21:47,1,38.85,20.16,5.92,2.03875,1,1,51277.9,46436.5,1695,0.30958849,0.38825047,150.30411,11.120511,59.7884,224.13,-40.5809,4.50302,29.0953,27.6878
1980-05-29 01:22:28,1,34.7111,25.1778,10.8333,2.44323,1,1,49125.6,49373.7,1695,0.30958867,0.38886595,150.30443,11.124745,57.7577,237.335,-57.0426,-12.1201,28.4781,28.55
1980-05-29 01:23:08,1,33.4667,26.2778,11.6222,2.28354,1,1,52336.8,43509.3,1695,0.30958879,0.38948137,150.30086,11.12898,51.2085,236.697,-57.8732,-8.02934,29.3942,26.8009
1980-05-29 01:23:42,-1,nan,nan,nan,nan,1,4,nan,nan,1695,0.30958879,0.38948172,150.29695,11.128982,nan,nan,nan,nan,nan,nan
1980-05-29 01:23:49,1,34.35,25.11,10.0,2.63807,1,1,50621.9,57887.1,1695,0.30958879,0.38948178,150.29305,11.128983,66.3524,229.128,-47.693,-1.9846,28.9086,30.9135
1980-05-29 01:24:29,1,35.48,23.85,9.51,1.55917,1,1,54111.3,50813.3,1695,0.30958897,0.3900972,150.29337,11.133216,57.6479,231.954,-51.3609,-7.39038,29.8884,28.9632
1980-05-29 01:25:10,1,36.7667,23.0778,6.65556,1.77819,1,1,48597.8,51322.9,1695,0.30958915,0.39071262,150.28979,11.13745,59.851,227.28,-47.1762,0.203557,28.3248,29.1081
1980-05-29 01:25:50,1,35.78,23.74,8.82,0.996795,1,1,54752.2,50004.5,1695,0.30958915,0.39071304,150.28589,11.137453,54.5579,229.435,-48.5189,-3.86831,30.0648,28.7318
1980-05-29 01:26:31,1,35.4625,24.2625,8.4875,0.707659,1,1,56935.6,51537.9,1695,0.30958933,0.39132845,150.28232,11.141687,57.8398,229.565,-50.576,0.58355,30.6584,29.169
1980-05-29 01:27:11,1,34.0333,24.8556,11.6889,2.83845,1,1,53599.7,56689.1,1695,0.30958951,0.39194387,150.28264,11.145922,58.435,234.304,-55.0179,-14.4491,29.7467,30.592
1980-05-29 01:29:06,-1,nan,nan,nan,nan,1,3,nan,nan,1695,0.30958986,0.39317513,150.27158,11.154392,nan,217.736,-31.6862,-1.2794,nan,nan
1980-05-29 01:29:12,-1,nan,nan,nan,nan,1,4,nan,nan,1695,0.30958986,0.39317518,150.27158,11.154392,nan,nan,nan,nan,nan,nan
1980-05-29 01:29:52,-1,nan,nan,nan,nan,1,3,nan,nan,1695,0.30958986,0.39317554,150.26376,11.154395,nan,205.766,-33.512,-46.2322,nan,nan
1980-05-29 01:34:30,-1,nan,nan,nan,nan,1,4,nan,nan,1695,0.3095907,0.39625347,150.24197,11.175571,nan,nan,nan,nan,nan,nan
1980-05-29 01:39:54,-1,nan,nan,nan,nan,1,3,nan,nan,1695,0.30959153,0.39933187,150.21628,11.19675,nan,211.852,-7.08959,-4.27343,nan,nan
1980-05-29 01:45:18,-1,nan,nan,nan,nan,1,3,nan,nan,1695,0.3095926,0.40302527,150.19092,11.22216,nan,215.349,-32.3965,-9.85008,nan,nan
1980-05-29 01:50:42,-1,nan,nan,nan,nan,1,3,nan,nan,1695,0.30959344,0.40610367,150.16132,11.24334,nan,210.697,-15.7538,-0.142686,nan,nan
1980-05-29 01:56:06,-1,nan,nan,nan,nan,1,3,nan,nan,1695,0.30959445,0.40979701,150.13985,11.268749,nan,214.453,-27.1304,9.64716,nan,nan
1980-05-29 02:01:30,-1,nan,nan,nan,nan,1,3,nan,nan,1695,0.30959535,0.41287518,150.11024,11.289928,nan,212.56,-17.7121,24.7444,nan,nan
1980-05-29 02:12:18,-1,nan,nan,nan,nan,1,3,nan,nan,1695,0.30959773,0.41964453,150.05527,11.336514,nan,218.921,-53.1387,-4.17818,nan,nan
1980-05-29 02:17:42,-1,nan,nan,nan,nan,1,3,nan,nan,1695,0.30959886,0.42272186,150.02957,11.357691,nan,210.674,-36.9563,-4.84754,nan,nan
1980-05-29 02:23:06,-1,nan,nan,nan,nan,1,3,nan,nan,1695,0.30960011,0.42641389,150.0042,11.383099,nan,206.117,-41.8184,2.21639,nan,nan
1980-05-29 02:28:30,-1,nan,nan,nan,nan,1,3,nan,nan,1695,0.30960125,0.42949122,149.97459,11.404276,nan,207.746,-42.6968,-0.957785,nan,nan
1980-05-29 02:33:54,-1,nan,nan,nan,nan,1,3,nan,nan,1695,0.30960232,0.43256849,149.9489,11.425453,nan,206.166,-33.3348,-0.457168,nan,nan
1980-05-29 02:39:18,-1,nan,nan,nan,nan,1,3,nan,nan,1695,0.30960363,0.43626052,149.92352,11.450861,nan,210.431,-31.242,-6.41287,nan,nan
1980-05-29 02:44:42,-1,nan,nan,nan,nan,1,3,nan,nan,1695,0.3096047,0.43933785,149.89392,11.472038,nan,222.377,1.24176,-43.236,nan,nan
1980-05-29 02:50:06,-1,nan,nan,nan,nan,1,3,nan,nan,1695,0.30960602,0.44302988,149.87245,11.497447,nan,220.382,-19.5645,-43.513,nan,nan
1980-05-29 02:55:30,-1,nan,nan,nan,nan,1,3,nan,nan,1695,0.30960709,0.44610721,149.84285,11.518624,nan,221.6,-7.07374,-47.4565,nan,nan
1980-05-29 03:00:54,-1,nan,nan,nan,nan,1,3,nan,nan,1695,0.30960822,0.44918448,149.81323,11.539801,nan,224.431,-20.3084,-50.877,nan,nan
1980-05-29 03:06:18,-1,nan,nan,nan,nan,1,3,nan,nan,1695,0.30960977,0.45287502,149.78786,11.565207,nan,223.672,-14.6586,-49.9633,nan,nan
1980-05-29 03:17:06,-1,nan,nan,nan,nan,1,4,nan,nan,1695,0.30953398,0.38530645,149.6615,11.536499,nan,nan,nan,nan,nan,nan
1980-05-29 03:22:30,-1,nan,nan,nan,nan,1,3,nan,nan,1695,0.309614,0.46271753,149.70718,11.632962,nan,214.047,-34.6376,-23.04,nan,nan
1980-05-29 03:27:54,-1,nan,nan,nan,nan,1,3,nan,nan,1695,0.30961531,0.46579355,149.68149,11.654137,nan,212.802,-52.9908,-7.81352,nan,nan
1980-05-29 03:33:18,-1,nan,nan,nan,nan,1,3,nan,nan,1695,0.30961692,0.46948409,149.65611,11.679543,nan,213.401,-47.3002,-10.0478,nan,nan
1980-05-29 03:38:42,-1,nan,nan,nan,nan,1,3,nan,nan,1695,0.30961823,0.47256005,149.6265,11.700718,nan,221.324,-58.9401,12.1558,nan,nan
1980-05-29 04:05:00,-1,nan,nan,nan,nan,1,3,nan,nan,1695,0.30962563,0.48916733,149.49864,11.815047,nan,208.23,-34.9736,-39.9135,nan,nan
1980-05-29 04:05:41,1,35.525,15.8875,18.05,2.27112,1,1,40410.7,38270.4,1695,0.30962563,0.48916775,149.49474,11.815051,23.3978,209.808,-38.0634,-42.2697,25.8289,25.1356
1980-05-29 04:07:02,-1,nan,nan,nan,nan,1,4,nan,nan,1695,0.30962622,0.4903971,149.49149,11.823516,nan,nan,nan,nan,nan,nan
1980-05-29 04:07:41,1,35.35,20.9,14.0,0.634429,1,1,37074.0,44207.7,1695,0.30962622,0.49039751,149.48367,11.823519,30.914,207.231,-48.511,-29.7426,24.7396,27.0151
1980-05-29 04:08:22,1,35.0875,21.725,13.45,1.97369,1,1,37149.4,37076.8,1695,0.30962652,0.49101222,149.4801,11.827752,23.6087,207.138,-52.4257,-26.0949,24.7648,24.7405
1980-05-29 04:09:02,1,32.725,22.1,18.0125,1.26411,1,1,42386.0,37165.7,1695,0.30962682,0.49162686,149.48042,11.831985,22.2415,213.807,-55.6902,-42.8757,26.4526,24.7702
1980-05-29 04:09:43,1,32.4111,21.0333,19.1111,2.59353,1,1,40581.4,43930.7,1695,0.30962682,0.49162728,149.47261,11.831987,22.9978,212.437,-56.5484,-36.0637,25.8834,26.9304
1980-05-29 04:11:05,1,36.6,18.1375,13.2625,1.68365,1,1,41406.8,43299.6,1695,0.30962747,0.49285668,149.46936,11.840453,30.379,198.959,-37.472,-21.7763,26.1453,26.7362
1980-05-29 04:11:45,1,33.15,11.725,23.5,2.04741,1,1,30405.5,76879.3,1695,0.30962747,0.49285704,149.46155,11.840456,46.611,216.627,-16.6189,-78.1753,22.4044,35.6256
1980-05-29 04:13:47,1,35.325,15.0125,19.175,1.51652,1,1,38610.2,37091.9,1695,0.30962807,0.49408686,149.45439,11.848924,23.8747,206.827,-34.7526,-49.1258,25.2469,24.7456
1980-05-29 04:14:27,1,36.7,14.9875,16.65,1.48949,1,1,47743.2,35837.9,1695,0.30962843,0.4947015,149.45082,11.853157,22.6614,201.885,-33.2848,-40.7695,28.0746,24.3237
1980-05-29 04:15:08,1,34.7375,13.8875,20.9875,1.3094,1,1,47661.8,36851.2,1695,0.30962873,0.49531621,149.44724,11.857389,22.2322,209.008,-32.2344,-53.518,28.0506,24.6651
1980-05-29 04:17:09,1,35.2875,16.9375,18.2375,2.93314,1,1,37447.5,43389.4,1695,0.30962932,0.49654597,149.44008,11.865858,23.6377,211.959,-39.7842,-53.5053,24.8639,26.7639
1980-05-29 04:19:11,1,36.05,14.2875,18.9375,1.07165,1,1,38794.4,39455.3,1695,0.30962998,0.49777573,149.42902,11.874327,26.1045,204.701,-33.3295,-49.5804,25.3071,25.5218
1980-05-29 04:21:12,1,34.95,12.3625,21.8875,1.2712,1,1,42040.6,39417.4,1695,0.30963057,0.4990055,149.41795,11.882794,26.2364,211.184,-29.6834,-62.0618,26.3446,25.5095
1980-05-29 04:24:35,1,35.35,14.5125,21.025,0.803411,1,1,36499.4,36862.4,1695,0.30963153,0.50085038,149.3994,11.895498,25.0099,209.865,-36.7654,-59.3687,24.5471,24.6689
1980-05-29 04:26:36,1,35.4625,19.9375,17.8375,0.868638,1,1,34937.1,34722.8,1695,0.30963212,0.50208014,149.39224,11.903967,24.0976,220.97,-45.251,-46.1319,24.016,23.9423
1980-05-29 04:27:17,1,34.4444,23.0667,16.6111,1.20882,1,1,33574.8,30686.8,1695,0.30963242,0.50269485,149.38867,11.908199,21.4878,223.622,-54.9242,-40.0186,23.5432,22.5078
1980-05-29 04:27:57,1,34.2333,23.8556,16.2889,1.68955,1,1,29554.7,29185.1,1695,0.30963242,0.5026952,149.38086,11.908202,24.6539,227.671,-56.4256,-34.9128,22.0888,21.9502
1980-05-29 04:28:38,1,34.2444,22.1111,18.6778,1.24752,1,1,29721.7,25368.6,1695,0.30963278,0.50330991,149.38118,11.912436,22.2695,226.916,-50.1937,-45.435,22.1511,20.4648
1980-05-29 04:29:18,1,34.7556,22.2889,17.1444,1.57527,1,1,28744.0,31370.5,1695,0.30963308,0.50392461,149.37761,11.916668,26.7566,223.757,-45.4409,-38.1117,21.7837,22.7572
1980-05-29 04:29:59,1,34.8778,22.7778,16.3333,1.66637,1,1,27604.2,23984.0,1695,0.30963308,0.50392503,149.3737,11.916671,22.2861,226.903,-54.7752,-34.848,21.3474,19.8984
1980-05-29 04:30:39,1,36.95,19.35,15.55,0.826136,1,1,27928.3,25986.4,1695,0.30963337,0.50453967,149.37012,11.920903,23.3903,219.15,-43.3232,-34.1234,21.4724,20.7124
1980-05-29 04:31:20,1,33.5875,21.825,18.425,1.88477,1,1,38651.5,36328.5,1695,0.30963367,0.50515437,149.36655,11.925137,25.098,221.707,-52.1141,-42.5962,25.2605,24.4896